STARLINK-30359, 57779

Orbit data source: Space-Track

STARLINK-30359, 57779 is a payload satellite in LEO that was launched on Mon, 04 Sep 2023 UTC via an FALCON 9 launch vehicle from the Air Force Eastern Test Range (AFETR). Payload-class satellites include a variety of spacecraft equipped with specific instruments for various scientific and technological missions. These include communications satellites like Starlink; space stations such as the ISS; scientific satellites like the Hubble; Earth observation satellites from companies like Planet Labs, Umbra, and HawkEye 360; GPS; miniature CubeSats for education and research; and military/defense satellites.

Loading next visibility...
Identifier
57779, 2023-134J
Orbit
LEO
Last TLE update
7 hours ago
Origin
Manufacturer
SpaceX/Seattle
Mission
Operational Commercial Communications
Bus & Motor
STARLINK V2M, Unknown motor
Mass
730 kg wet, ~700 kg dry
Launch date (UTC)
2023-09-04 (2 years ago)
Launch vehicle
FALCON 9
Launch site
Air Force Eastern Test Range (AFETR)
Object type
Payload
Rocket body
Debris
Shape & HBR
Box + 2 Pan, 29 m
Radar Cross Section
33.884 m², Large (>1 m²)

Expand to show TLE details & history

TLE from 7 hours ago
0 STARLINK-30359
1 57779U 23134J   25151.06460323  .00002845  00000-0  22560-3 0  9993
2 57779  43.0042 280.6921 0001123 274.2484  85.8230 15.02529785 96933
Epoch: 2025-05-31T01:33Z
TLE epoch observation values (Epoch: 2025-05-31T01:33:01.719Z)
Latitude
-0°
Longitude
8.62459°
Altitude
558.82 km
Speed
7.584 km/s
True Right ascension
18h 42m 46s
True Declination
0° 00' 00"
Sunlit
Object was in full shadow at epoch
Visualization orbit readout
Latitude
35.95774°
Longitude
136.3847°
Altitude
561.457 km
Speed
7.585 km/s
Apparent Right ascension
04h 32m 45s
Apparent Declination
0° 05' 53"
Sunlit
Object is in daylight
Visualization observer readout
Local Sidereal Time
18:03:58
Azimuth
33.296° NE
Elevation
-45.082°
Doppler factor
1
Orbital elements
Apogee altitude
561.801 km
Perigee altitude
560.243 km
Semi-major axis
6,939.159 km
Eccentricity
0.00011
Inclination
43.0042°
RAAN
280.6921°
Arg. of periapsis
274.2484°
True anomaly
Unknown
Mean anomaly
85.823°
Eccentric anomaly
Unknown
Mean motion
3.75477 °/min
Orbital period
95.88 mins
BSTAR
0.0002256
Loading maneuver chart data...
Loading SW <> Apogee altitude chart data...
Loading historical data...
Loading historical data...
Loading historical data...
Loading historical data...
Loading historical data...
Loading historical data...
Loading historical data...

STARLINK-30359 Visibility forecast

Observer location: undefined°, undefined°

Span
Click to sort rows by Start time (UTC) header in descending order
Start Az.
Max El. time (UTC)
Max El. Az.
Max El.
End time (UTC)
End Az.
6 mins2025-05-31 11:18:04.306Z192.835° SSW2025-05-31 11:21:04.306Z142.657° SSE20.99°2025-05-31 11:24:04.306Z94.252° ESE
6 mins2025-05-31 12:59:04.306Z245.975° WSW2025-05-31 13:01:04.306Z219.365° SW44.341°2025-05-31 13:05:04.306Z72.679° E
7 mins2025-05-31 14:39:04.306Z282.908° WNW2025-05-31 14:42:04.306Z351.739° N39.432°2025-05-31 14:46:04.306Z76.221° E
7 mins2025-05-31 16:20:04.306Z289.902° WNW2025-05-31 16:23:04.306Z12.537° NNE44.549°2025-05-31 16:27:04.306Z103.525° ESE
6 mins2025-05-31 18:01:04.306Z264.542° W2025-05-31 18:03:04.306Z226.245° WSW26.864°2025-05-31 18:07:04.306Z151.063° SSE
|